User: anonymous   Login
Location: ????????
(37.9452°N, 23.1472°E)
Time: 18:18:34
(UTC+00:00)
Language:

Cosmos 2263 Rocket - Orbit

View from above orbital plane
View from above orbital plane
View from above satellite
View from above satellite

Ground track
Ground track

The orbit data is extracted from the following two-line orbital elements,

1 22803U 93059B   24165.69186320  .00000129  00000-0  87604-4 0  9995
2 22803  70.9906 267.9260 0015029  97.5003 262.7829 14.17032987589719
Epoch (UTC): 13 June 2024 16:36:16
Eccentricity: 0.0015029
inclination: 70.9906°
perigee height: 824 km
apogee height: 846 km
right ascension of ascending node: 267.9260°
argument of perigee: 97.5003°
revolutions per day: 14.17032987
mean anomaly at epoch: 262.7829°
orbit number at epoch: 58971

The dashed part of the orbit path shows where the satellite is in the earth's shadow,  

DLR